This is the latest recevied weather packets stored in our database for station/object VK3BKO-13. If no packets are shown the sender has not sent any weather packets the latest 10 day(s).
| Time | Temp. | Humidity | Pressure | Rain* | Wind** | Luminosity | Snow |
|---|---|---|---|---|---|---|---|
| 1777720623 | 22.22° C | 52% | 1014.3 hPa | 0 mm | - | 0 W/m² | - |
| 1777719723 | 22.22° C | 52% | 1014.3 hPa | 0 mm | - | 0 W/m² | - |
| 1777718823 | 21.67° C | 53% | 1014.3 hPa | 0 mm | - | 0 W/m² | - |
| 1777717924 | 22.22° C | 52% | 1013.9 hPa | 0 mm | - | 0 W/m² | - |
| 1777717024 | 22.22° C | 51% | 1014.3 hPa | 0 mm | - | 0 W/m² | - |
| 1777716124 | 22.22° C | 51% | 1014.3 hPa | 0 mm | - | 0 W/m² | - |
| 1777715223 | 22.22° C | 51% | 1014.3 hPa | 0 mm | - | 0 W/m² | - |
| 1777714323 | 22.22° C | 51% | 1014.6 hPa | 0 mm | - | 0 W/m² | - |
| 1777713423 | 22.22° C | 51% | 1014.6 hPa | 0 mm | - | 0 W/m² | - |
| 1777712523 | 22.78° C | 51% | 1014.6 hPa | 0 mm | - | 0 W/m² | - |
| 1777711624 | 22.78° C | 51% | 1014.6 hPa | 0 mm | - | 0 W/m² | - |
| 1777710723 | 22.78° C | 50% | 1014.6 hPa | 0 mm | - | 0 W/m² | - |
| 1777709824 | 22.78° C | 49% | 1014.6 hPa | 0 mm | - | 0 W/m² | - |
| 1777708924 | 22.78° C | 49% | 1014.6 hPa | 0 mm | - | 0 W/m² | - |
| 1777708025 | 22.78° C | 48% | 1014.3 hPa | 0 mm | - | 0 W/m² | - |
| 1777707124 | 23.33° C | 47% | 1014.3 hPa | 0 mm | - | 1 W/m² | - |
| 1777706224 | 23.33° C | 46% | 1014.3 hPa | 0 mm | - | 6 W/m² | - |
| 1777705324 | 23.89° C | 45% | 1014.3 hPa | 0 mm | - | 26 W/m² | - |
| 1777704424 | 24.44° C | 44% | 1014.3 hPa | 0 mm | - | 48 W/m² | - |
| 1777703524 | 25° C | 44% | 1014.3 hPa | 0 mm | - | 56 W/m² | - |
| 1777702623 | 25° C | 44% | 1014.3 hPa | 0 mm | - | 96 W/m² | - |
| 1777701724 | 25° C | 46% | 1014.3 hPa | 0 mm | - | 116 W/m² | - |
| 1777700823 | 24.44° C | 47% | 1014.3 hPa | 0 mm | - | 129 W/m² | - |
| 1777699924 | 23.89° C | 48% | 1014.6 hPa | 0 mm | - | 168 W/m² | - |
| 1777699024 | 23.89° C | 48% | 1014.6 hPa | 0 mm | - | 153 W/m² | - |
* Rain latest hour (hover to see other rain measurements)
** Current wind speed in m/s (hover to see current wind gust speed)